カタログに戻る

METEOR 2-5 DEB

運用中PO
NORAD 45507·DEBRIS·🇷🇺 Russia

打ち上げ Oct 31, 1979 から Plesetsk Cosmodrome

Loading…

次のパス (今後24時間)

TLE

最新Source: Space-Track

元期: Sep 12, 2026, 16:59 UTC

1 45507U 79095CP  26255.70779680  .00002645  00000-0  86536-3 0  9993
2 45507  81.1941  48.8375 0010001 109.0454 251.1816 14.38261517609734

AllMySatでMETEOR 2-5 DEBをリアルタイム追跡

Download on the App Store